Date String (YYYY-MM-DD hh:mm:ss) UTC,Instrument flags,absolute air pressure of the measurement (hPa),sample flow rate (lpm),inlet stack bypass flow (lpm),air temperature of the measurement (°C),ambient temperature measured by the external sensor (°C),aerosol sample conditioner tube jacket temperature (°C),OPC LED temperature (°C),internal box temperature (°C),relative humidity of the measurement (%),span deviation,mass concentration of particles derived from Lorenz-Mie calculation of OPC scattering (μg/m³),mass concentration of particles derived from Lorenz-Mie calculation of OPC scattering (μg/m³),mass concentration of particles derived from Lorenz-Mie calculation of OPC scattering (μg/m³)
DateTimeUTC,F1_M11,P_M11,Q1_M11,Q2_M11,T1_M11,T2_M11,T3_M11,T4_M11,T5_M11,U1_M11,ZSPAN_M11,X0_M11,X2_M11,X1_M11
2023-11-16 18:00:00,SystemResetWarning,0824.4,5.00,000.00,026.5,025.3,000.0,034.8,027.8,16.3,0000.0,0040.42,0002.49,0000.51
2023-11-16 18:01:00,SystemResetWarning,0824.0,4.99,000.00,026.4,025.3,000.0,034.8,027.9,16.6,0000.0,0040.50,0002.51,0000.50
2023-11-16 18:02:00,SystemResetWarning,0824.2,5.01,000.00,026.4,025.4,000.0,034.8,027.9,16.4,0000.0,0040.41,0002.53,0000.50
2023-11-16 18:03:00,SystemResetWarning,0824.0,5.00,000.00,026.4,025.4,000.0,034.8,027.9,16.4,0000.0,0040.25,0002.54,0000.49
2023-11-16 18:04:00,SystemResetWarning,0824.0,5.01,000.00,026.4,025.4,000.0,034.8,027.9,16.6,0000.0,0040.28,0002.56,0000.49
2023-11-16 18:05:00,SystemResetWarning,0824.0,4.99,000.00,026.4,025.4,000.0,034.8,027.9,16.8,0000.0,0040.23,0002.57,0000.49
2023-11-16 18:06:00,SystemResetWarning,0824.0,5.00,000.00,026.4,025.4,000.0,034.8,027.9,17.0,0000.0,0039.98,0002.53,0000.47
2023-11-16 18:07:00,SystemResetWarning,0824.0,5.00,000.00,026.4,025.4,000.0,034.8,027.9,16.9,0000.0,0042.05,0002.75,0000.48
2023-11-16 18:08:00,SystemResetWarning,0824.0,4.99,000.00,026.4,025.4,000.0,034.8,027.9,16.9,0000.0,0035.01,0002.64,0000.47
2023-11-16 18:09:00,SystemResetWarning,0824.0,5.00,000.00,026.4,025.4,000.0,034.8,027.9,17.0,0000.0,0018.58,0002.07,0000.44
2023-11-16 18:10:00,SystemResetWarning,0823.9,5.00,000.00,026.4,025.4,000.0,034.8,027.9,16.9,0000.0,0011.75,0001.70,0000.42
2023-11-16 18:11:00,SystemResetWarning,0823.8,5.00,000.00,026.4,025.4,000.0,034.8,027.9,16.9,0000.0,0012.77,0001.79,0000.43
2023-11-16 18:12:00,SystemResetWarning,0823.8,5.00,000.00,026.4,025.4,000.0,034.8,027.9,17.0,0000.0,0014.14,0001.86,0000.44
2023-11-16 18:13:00,SystemResetWarning,0823.9,5.00,000.00,026.4,025.4,000.0,034.8,027.9,17.0,0000.0,0014.76,0001.92,0000.44
2023-11-16 18:14:00,SystemResetWarning,0823.8,5.00,000.00,026.4,025.4,000.0,034.8,027.9,17.2,0000.0,0015.09,0002.01,0000.45
2023-11-16 18:15:00,SystemResetWarning,0823.9,5.01,000.00,026.4,025.4,000.0,034.8,027.9,17.2,0000.0,0016.01,0002.11,0000.45
2023-11-16 18:16:00,SystemResetWarning,0824.0,5.00,000.00,026.4,025.3,000.0,034.8,027.9,17.1,0000.0,0016.88,0002.14,0000.45
2023-11-16 18:17:00,SystemResetWarning,0824.0,5.00,000.00,026.4,025.3,000.0,034.8,027.9,17.2,0000.0,0017.14,0002.22,0000.45
2023-11-16 18:18:00,SystemResetWarning,0823.9,5.00,000.00,026.4,025.3,000.0,034.8,027.8,17.2,0000.0,0015.73,0001.95,0000.43
2023-11-16 18:19:00,SystemResetWarning,0824.0,5.01,000.00,026.4,025.3,000.0,034.8,027.8,17.2,0000.0,0015.41,0001.79,0000.43
2023-11-16 18:20:00,SystemResetWarning,0823.9,5.01,000.00,026.4,025.3,000.0,034.8,027.8,17.0,0000.0,0015.30,0001.76,0000.44
2023-11-16 18:21:00,SystemResetWarning,0823.9,5.00,000.00,026.4,025.3,000.0,034.8,027.9,17.1,0000.0,0013.21,0001.66,0000.43
2023-11-16 18:22:00,SystemResetWarning,0823.9,5.00,000.00,026.4,025.3,000.0,034.8,027.9,17.1,0000.0,0011.63,0001.45,0000.41
2023-11-16 18:23:00,SystemResetWarning,0823.9,5.00,000.00,026.4,025.3,000.0,034.8,027.9,17.2,0000.0,0010.44,0001.36,0000.40
2023-11-16 18:24:00,SystemResetWarning,0823.7,5.00,000.00,026.4,025.3,000.0,034.8,027.9,17.2,0000.0,0010.24,0001.30,0000.40
2023-11-16 18:25:00,SystemResetWarning,0823.7,4.99,000.00,026.4,025.3,000.0,034.8,027.9,17.0,0000.0,0009.96,0001.23,0000.39
2023-11-16 18:26:00,SystemResetWarning,0823.8,5.00,000.00,026.5,025.4,000.0,034.8,027.9,17.0,0000.0,0009.05,0001.09,0000.38
2023-11-16 18:27:00,SystemResetWarning,0823.8,5.00,000.00,026.5,025.4,000.0,034.8,027.9,17.1,0000.0,0008.05,0000.99,0000.36
2023-11-16 18:28:00,SystemResetWarning,0823.8,5.00,000.00,026.5,025.4,000.0,034.8,027.9,17.3,0000.0,0007.65,0000.88,0000.36
2023-11-16 18:29:00,SystemResetWarning,0824.0,5.00,000.00,026.5,025.4,000.0,034.8,027.9,17.3,0000.0,0006.34,0000.80,0000.36
2023-11-16 18:30:00,SystemResetWarning,0824.0,5.00,000.00,026.5,025.5,000.0,034.8,028.0,17.1,0000.0,0004.02,0000.66,0000.35
2023-11-16 18:31:00,SystemResetWarning,0824.0,5.00,000.00,026.5,025.5,000.0,034.8,027.9,17.0,0000.0,0003.97,0000.62,0000.34
2023-11-16 18:32:00,SystemResetWarning,0824.1,5.00,000.00,026.5,025.5,000.0,034.8,028.0,17.0,0000.0,0003.81,0000.55,0000.33
2023-11-16 18:33:00,SystemResetWarning,0824.2,5.00,000.00,026.5,025.5,000.0,034.8,028.0,16.9,0000.0,0003.41,0000.55,0000.33
2023-11-16 18:34:00,SystemResetWarning,0824.1,5.00,000.00,026.5,025.5,000.0,034.8,028.0,17.0,0000.0,0002.87,0000.54,0000.33
2023-11-16 18:35:00,SystemResetWarning,0824.1,5.00,000.00,026.6,025.6,000.0,034.8,028.0,17.0,0000.0,0002.85,0000.52,0000.33
2023-11-16 18:36:00,SystemResetWarning,0824.2,5.00,000.00,026.6,025.6,000.0,034.8,028.0,16.9,0000.0,0003.06,0000.50,0000.33
2023-11-16 18:37:00,SystemResetWarning,0824.3,5.00,000.00,026.6,025.6,000.0,034.9,028.0,16.9,0000.0,0003.11,0000.51,0000.33
2023-11-16 18:38:00,SystemResetWarning,0824.1,5.00,000.00,026.6,025.7,000.0,034.9,028.1,17.0,0000.0,0003.14,0000.52,0000.34
2023-11-16 18:39:00,SystemResetWarning,0824.0,5.00,000.00,026.6,025.7,000.0,034.9,028.1,17.1,0000.0,0003.14,0000.52,0000.34
2023-11-16 18:40:00,SystemResetWarning,0823.9,5.00,000.00,026.6,025.7,000.0,034.9,028.1,17.1,0000.0,0002.61,0000.49,0000.33
2023-11-16 18:41:00,SystemResetWarning,0824.0,5.00,000.00,026.7,025.7,000.0,034.9,028.1,16.9,0000.0,0002.30,0000.47,0000.32
2023-11-16 18:42:00,SystemResetWarning,0824.0,5.00,000.00,026.7,025.7,000.0,034.9,028.2,16.9,0000.0,0002.12,0000.44,0000.32
2023-11-16 18:43:00,SystemResetWarning,0824.0,5.01,000.00,026.7,025.8,000.0,034.9,028.2,16.8,0000.0,0002.10,0000.43,0000.32
2023-11-16 18:44:00,SystemResetWarning,0824.0,5.00,000.00,026.7,025.8,000.0,034.9,028.2,17.0,0000.0,0002.06,0000.42,0000.32
2023-11-16 18:45:00,SystemResetWarning,0824.0,4.99,000.00,026.7,025.9,000.0,035.0,028.2,16.9,0000.0,0001.98,0000.40,0000.32
2023-11-16 18:46:00,SystemResetWarning,0824.0,5.00,000.00,026.8,025.9,000.0,035.0,028.3,16.6,0000.0,0001.08,0000.38,0000.32
2023-11-16 18:47:00,SystemResetWarning,0824.0,5.00,000.00,026.8,025.9,000.0,035.0,028.3,16.6,0000.0,0000.80,0000.36,0000.32
2023-11-16 18:48:00,SystemResetWarning,0824.0,5.00,000.00,026.8,026.0,000.0,035.0,028.4,16.8,0000.0,0000.75,0000.35,0000.32
2023-11-16 18:49:00,SystemResetWarning,0823.9,5.00,000.00,026.8,026.0,000.0,035.0,028.4,16.8,0000.0,0000.74,0000.35,0000.31
2023-11-16 18:50:00,SystemResetWarning,0823.9,5.00,000.00,026.9,026.0,000.0,035.1,028.4,16.4,0000.0,0000.77,0000.36,0000.31
2023-11-16 18:51:00,SystemResetWarning,0823.8,4.99,000.00,026.9,026.1,000.0,035.1,028.4,16.3,0000.0,0000.74,0000.37,0000.31
2023-11-16 18:52:00,SystemResetWarning,0823.9,5.00,000.00,026.9,026.1,000.0,035.1,028.4,16.4,0000.0,0000.50,0000.39,0000.31
2023-11-16 18:53:00,SystemResetWarning,0824.0,5.00,000.00,026.9,026.1,000.0,035.1,028.5,16.5,0000.0,0000.77,0000.39,0000.31
2023-11-16 18:54:00,SystemResetWarning,0824.0,5.00,000.00,026.9,026.2,000.0,035.1,028.5,16.3,0000.0,0001.39,0000.39,0000.30
2023-11-16 18:55:00,SystemResetWarning,0824.0,5.00,000.00,027.0,026.2,000.0,035.1,028.5,16.1,0000.0,0001.49,0000.40,0000.30
2023-11-16 18:56:00,SystemResetWarning,0823.9,5.01,000.00,027.0,026.2,000.0,035.2,028.5,16.2,0000.0,0001.54,0000.39,0000.28
2023-11-16 18:57:00,SystemResetWarning,0823.9,5.00,000.00,027.0,026.3,000.0,035.2,028.6,16.3,0000.0,0001.54,0000.38,0000.27
2023-11-16 18:58:00,SystemResetWarning,0823.9,5.00,000.00,027.1,026.3,000.0,035.2,028.6,16.1,0000.0,0001.59,0000.40,0000.26
2023-11-16 18:59:00,SystemResetWarning,0823.8,5.00,000.00,027.1,026.3,000.0,035.2,028.6,16.0,0000.0,0001.84,0000.42,0000.26
